Torna al catalogo

CZ-4 DEB

AttivoSSO
NORAD 37617·DEBRIS·🇨🇳 China

Lanciato Sep 3, 1990 da Taiyuan Satellite Launch Center

Loading…

Prossimi Passaggi (prossime 24 ore)

TLE

ObsoletoSource: Space-Track

Epoca: Aug 30, 2026, 04:01 UTC

1 37617U 90081DD  26242.16780358  .00000328  00000-0  23333-3 0  9996
2 37617  98.9873 220.1085 0009556  52.7675   7.2982 14.04402335648030

Traccia CZ-4 DEB in tempo reale con AllMySat

Download on the App Store